• MPC Preparation (Info)

  • MPEC 2023-T213 : 2012 VO6

    The following Minor Planet Electronic Circular may be linked-to from your own Web pages, but must not otherwise be redistributed electronically.

    A form allowing access to any MPEC is at the bottom of this page.


    Read MPEC 2023-T212 Read MPEC 2023-T214


    M.P.E.C. 2023-T213                             Issued 2023 October 13, 14:11 UT
    
         The Minor Planet Electronic Circulars contain information on unusual
             minor planets, routine data on comets and natural satellites,
             and occasional editorial announcements.  They are published
        on behalf of Division F of the International Astronomical Union by the
              Minor Planet Center, Smithsonian Astrophysical Observatory,
                              Cambridge, MA 02138, U.S.A.
    			  
                 Prepared using the Tamkin Foundation Computer Network
    
                                  MPC@CFA.HARVARD.EDU
                URL https://www.minorplanetcenter.net/    ISSN 1523-6714
    
                                    2012 VO6                                 
    
    
                               Revision to MPEC 2012-V34                            
    
    Additional Observations:
         K12V06O KC2023 10 10.40153 00 39 37.55 +10 57 50.8          22.6 GVET213291
         K12V06O KC2023 10 10.42101 00 39 35.61 +10 57 38.0          22.7 GVET213291
         K12V06O KC2023 10 11.27277 00 38 12.27 +10 48 09.0          22.6 GVET213291
         K12V06O KC2023 10 11.28739 00 38 10.77 +10 47 58.9          22.4 GVET213291
         K12V06O KC2023 10 11.30164 00 38 09.29 +10 47 49.9          23.0 GVET213291
    
    Observer details:
    291 LPL/Spacewatch II.  Observer M. J. Brucker.  1.8-m f/2.7 reflector + CCD.
    
    First and last observations above in comparison with prediction:
    Residuals in seconds of arc, reference and Delta-T
    231010 291 53.4- 23.2-    231011 291 53.6- 22.9-    E2023-Q03   -0.01 days
    
    Orbital elements:
    2012 VO6                                            PHA, Earth MOID = 0.0262 AU
    Epoch 2023 Sept. 13.0 TT = JDT 2460200.5                Veres                   
    M 302.69645              (2000.0)            P               Q                  
    n   0.35764730     Peri.  243.76335     -0.58968907     -0.80574061             
    a   1.9656193      Node   242.48116     +0.76142716     -0.53186018             
    e   0.5354862      Incl.    3.56959     +0.26924984     -0.26058936             
    P   2.76           H   21.43          G   0.15           U   1                  
    Residuals in seconds of arc
    121011 F51  0.4-  0.0     121204 291  0.0   0.0     130322 H21  0.3+  0.2-
    121011 F51  0.2+  0.0     121204 291  0.0   0.2+    130322 H21  0.1+  0.0
    121011 F51  0.0   0.1+    121213 291  0.4-  0.3-    130322 H21  0.3+  0.1-
    121104 F51  0.0   0.3-    121213 291  0.2-  0.1+    130322 H21  0.0   0.3-
    121104 F51  0.0   0.3-    121213 291  0.4+  0.2+    130322 H21  0.1+  0.1-
    121104 F51  0.4+  0.0     130104 291  0.1+  0.2+    130324 H21  0.1-  0.4-
    121104 F51  0.0   0.0     130104 291  0.9+  0.4+    130324 H21  0.3-  0.2-
    121105 H21  0.2+  0.3+    130202 568  0.2+  0.1-    130324 H21  0.2-  0.3-
    121105 H21  0.1-  0.2+    130202 568  0.0   0.1-    130328 H21  0.1-  0.1-
    121105 H21  0.1-  0.0     130202 568  0.1+  0.1-    130328 H21  0.1+  0.0
    121106 291  0.4-  0.1+    130205 291  0.5-  0.8+    130403 H21  0.1+  0.0
    121106 291  0.0   0.1+    130205 291  0.3+  0.1+    130403 H21  0.3+  0.1-
    121106 291  0.4-  0.2+    130205 291  0.2-  0.4-    130403 H21  0.4+  0.2+
    121107 291  0.6+  0.5-    130206 F51  0.1-  0.1-    130403 807  0.1+  0.0
    121107 291  0.0   0.1-    130206 F51  0.2-  0.1+    130403 807  0.0   0.0
    121107 291  0.4+  0.1+    130206 F51  0.5+  0.3-    130403 807  0.0   0.1+
    121112 291  0.9-  0.3-    130302 291  0.1+  0.2+    130404 448  0.4+  0.3-
    121112 291  0.6-  0.0     130302 291  0.5-  0.3-    130404 448  0.2-  0.5-
    121112 291  0.1-  0.6-    130302 291  0.5+  0.1+    130404 448  0.0   0.3-
    121113 291  0.8+  0.2+    130303 204  0.1-  0.4-    130404 E12  0.1-  0.1+
    121113 291  0.1+  0.2+    130303 204  0.1-  1.2-    130404 E12  0.3-  0.0
    121113 291  0.3+  0.1-    130312 291  0.1+  0.0     130426 F51  0.1+  0.0
    121117 291  0.1+  0.1+    130312 291  0.1-  0.1+    130427 F51  0.3-  0.2+
    121117 291  0.1+  0.1-    130312 291  0.2+  0.0     130427 F51  0.1+  0.0
    121117 291  0.2-  0.3-    130319 H21  0.2+  0.0     130430 F51  0.0   0.1+
    121119 291  0.2+  0.3+    130319 H21  0.0   0.2+    130430 F51  0.0   0.0
    121119 291  0.4+  0.0     130319 H21  0.1-  0.0     231010 291  0.1+  0.3-
    121119 291  0.9-  0.1-    130319 H21  0.3-  0.2+    231010 291  0.4+  0.0
    121120 291  0.3+  0.5+    130320 H21  0.2+  0.7-    231011 291  0.1-  0.3-
    121120 291  0.0   0.3+    130320 H21  0.1-  0.2-    231011 291  0.1+  0.5-
    121120 291  0.2-  0.5-    130320 H21  0.0   0.9+    231011 291  0.0   0.1+
    121204 291  0.1+  0.1+    130320 H21  0.1-  1.1+
    
    Ephemeris:
    2012 VO6                 a,e,i = 1.97, 0.54, 4                   q = 0.9131
    Date    TT    R. A. (2000) Decl.     Delta      r    Elong.  Phase     V
    2023 09 13    01 11 48.0 +13 49 47   1.0027  1.9283   147.4    16.3    23.7
    ...
    2023 09 28    00 57 44.6 +12 48 06   0.8393  1.8255   164.8     8.3    22.9
    ...
    2023 10 06    00 46 35.9 +11 43 12   0.7719  1.7687   173.1     3.9    22.5
    ...
    2023 10 12    00 37 00.1 +10 39 58   0.7313  1.7253   171.8     4.7    22.3
    2023 10 13    00 35 20.0 +10 28 20   0.7254  1.7180   170.8     5.3    22.3
    2023 10 14    00 33 39.1 +10 16 25   0.7197  1.7107   169.7     6.0    22.4
    ...
    2023 10 20    00 23 26.5 +08 59 59   0.6906  1.6665   162.0    10.7    22.4
    ...
    2023 10 28    00 10 17.2 +07 10 13   0.6643  1.6065   150.8    17.6    22.5
    ...
    2023 11 12    23 51 10.4 +03 54 15   0.6457  1.4917   130.4    30.4    22.7
    
    A. U. Tomatic                (C) Copyright 2023 MPC           M.P.E.C. 2023-T213
    


    Read MPEC 2023-T212 Read MPEC 2023-T214


    MPEC number:

    Enter an MPEC number in one of the following forms:

    • 1997-B01 (the full form)
    • J97B01 (the packed version of the full form)
    • B01 (the abbreviated form)